7 * 24
多渠道服务支持
STARLINK-34796是美国SpaceX星链星座的一员,于2025年8月14日发射。星链计划旨在搭建全球卫星互联网,为偏远地区、航空海运等场景提供低延迟宽带服务。该卫星入轨后,将进一步扩充星链星座规模,提升星座覆盖密度与服务稳定性,助力全球网络基础设施建设,推进Starlink商业服务布局,延续美国低轨卫星星座的扩张节奏。
美国
(US)
| 数据来源 | 国际轨道数据 |
| 星历时间: | 2026-09-12T14:59:38+0800 18小时前 查看轨道信息 |
| 半长轴: | 6840.828km |
| 偏心率: | 0.0001205 |
| 轨道倾角: | 53.161° |
| 近地点辐角 | 78.644° |
| 升交点赤经 | 2.179° |
| 平近点角 | 281.470° |
| 近地点: | 461.866km |
| 远地点: | 463.516km |
| 周期: | 93.847分钟 |
| 每日圈数: | 15.344043 |